Location: Seattle
(47.6064°N, 122.3308°W)
Time: 02:58:15
(UTC-08:00)

SR - Pass Details

Date: 29 November 2020
Orbit: 575 x 880 km, 66.7° (Epoch: 20 January)

Event Time Altitude Azimuth Distance (km) Brightness Sun altitude
Rises 19:50:00 0° 250° (WSW) 2,840 ? -34.5°
Reaches altitude 10° 19:52:30 10° 264° (W) 1,975 ? -35.0°
Enters shadow 19:54:31 20° 287° (WNW) 1,447 ? -35.3°
